Regional Weather Roundup
Issued by NWS Charleston, WV

Home | Current Version | Previous Version | Graphics & Text | Print | Product List | Glossary On
Versions: 1 2 3 4 5 6 7 8 9 10 11 12 13 14 15 16 17 18 19 20 21 22 23 24 25 26 27 28 29 30 31 32 33 34 35 36 37 38 39 40 41 42 43 44 45 46 47 48 49 50
000
ASUS41 KRLX 301210
RWRRLX
West Virginia Regional Weather Roundup
National Weather Service Charleston WV
800 AM EDT TUE SEP 30 2014

Note: "fair" indicates few or no clouds below 12,000 feet with no
significant weather and/or obstructions to visibility.

WVZ003-301300-
Northern Panhandle of West Virginia

CITY           SKY/WX    TMP DP  RH WIND       PRES   REMARKS
WHEELING       FOG       55  54  96 SE3       29.91R VSB<1/4
$$

WVZ009-301300-
Northwest West Virginia

CITY           SKY/WX    TMP DP  RH WIND       PRES   REMARKS
PARKERSBURG    FOG       52  51  97 CALM      29.94R VSB 1/4
$$

WVZ006-301300-
Western West Virginia

CITY           SKY/WX    TMP DP  RH WIND       PRES   REMARKS
HUNTINGTON     FOG       54  54 100 CALM      29.93R VSB 1/4
$$

WVZ015-301300-
West Central West Virginia

CITY           SKY/WX    TMP DP  RH WIND       PRES   REMARKS
CHARLESTON     FOG       59  58  96 CALM      29.94R VSB 1/4
$$

WVZ031-301300-
North Central West Virginia

CITY           SKY/WX    TMP DP  RH WIND       PRES   REMARKS
CLARKSBURG     CLEAR     52  52 100 CALM      29.94R
MORGANTOWN     CLEAR     59  55  87 CALM      29.94R
$$

WVZ035-042-045-301300-
South Central West Virginia

CITY           SKY/WX    TMP DP  RH WIND       PRES   REMARKS
BECKLEY        CLEAR     56  54  93 CALM      30.00S FOG
BLUEFIELD      CLEAR     58  55  90 W7        30.03R
LEWISBURG      FOG       56  54  93 CALM      30.01R VSB 1/4
$$

WVZ047-301300-
Northern Mountains of West Virginia

CITY           SKY/WX    TMP DP  RH WIND       PRES   REMARKS
ELKINS         FOG       53  53 100 CALM      29.99R VSB<1/4
$$

WVZ052-301300-
Eastern Panhandle of West Virginia

CITY           SKY/WX    TMP DP  RH WIND       PRES   REMARKS
MARTINSBURG    PTCLDY    56  54  93 CALM      29.93R FOG
PETERSBURG     FOG      N/A N/A N/A CALM      29.96S VSB 1/2
$$


USA.gov is the U.S. government's official web portal to all federal, state and local government web resources and services.